Regional Weather Roundup
Issued by NWS Charleston, SC

Current Version | Previous Version | Text Only | Print | Product List | Glossary Off
Versions: 1 2 3 4 5 6 7 8 9 10 11 12 13 14 15 16 17 18 19 20 21 22 23 24 25 26 27 28 29 30 31 32 33 34 35 36 37 38 39 40 41 42 43 44 45 46 47 48 49 50

000
ASUS42 KCHS 212310
RWRCHS

REGIONAL WEATHER ROUNDUP
NATIONAL WEATHER SERVICE CHARLESTON SC
600 PM EST TUE FEB 21 2017

NOTE: "FAIR" INDICATES FEW OR NO CLOUDS BELOW 12,000 FEET WITH NO
SIGNIFICANT WEATHER AND/OR OBSTRUCTIONS TO VISIBILITY.

NOT ALL STATIONS ARE QUALITY CONTROLLED. USE DATA WITH CAUTION...
ESPECIALLY DEWPOINT OBSERVATIONS.

SCZ027-030-031-034>040-042>050-220000-
...SOUTHEAST SOUTH CAROLINA...

CITY           SKY/WX    TMP DP  RH WIND       PRES   REMARKS
N CHARLESTON   CLOUDY    65  58  78 E8        30.07F
WATERFRONT PRK   N/A     63  60  90 E13       30.06S
MOUNT PLEASANT FAIR      63  59  88 E7        30.08F
JOHNS ISLAND   FAIR      63  59  88 E13       30.08R
PINOPOLIS        N/A     66  57  72 VRB3      30.00R
MONCKS CORNER  CLOUDY    64  55  72 E5        30.09R
SUMMERVILLE    CLOUDY    68  57  68 CALM      30.08S
BEAUFORT MCAS  CLOUDY    66  62  87 E10       30.06S
BEAUFORT ARPT  CLOUDY    64  59  82 E5        30.06S
HILTON HEAD IS PTCLDY    64  61  88 E5        30.06S
WALTERBORO     CLOUDY    66  57  72 E6        30.07F
ALLENDALE      CLOUDY    68  59  73 SE5       30.04S

...SOUTHERN MIDLANDS AND PEE DEE...

CITY           SKY/WX    TMP DP  RH WIND       PRES   REMARKS
GEORGETOWN     CLOUDY    59  54  82 E7        30.12S
KINGSTREE      MOCLDY    63  52  67 E8        30.10S
ORANGEBURG     CLOUDY    67  55  65 VRB3      30.07S
BARNWELL       MOCLDY    66  61  82 NE3       30.06S
AIKEN          CLOUDY    64  54  68 E7        30.08F
MANNING        MOCLDY    63  45  51 MISG      30.09S
COLUMBIA       CLOUDY    67  53  61 E7        30.06F
SUMTER         CLOUDY    66  52  60 SE8       30.07R
FLORENCE       CLOUDY    66  50  56 SE7       30.10S
MYRTLE BEACH   MOCLDY    59  54  82 E12       30.13S
N MYRTLE BEACH MOCLDY    60  53  77 E8        30.11S

$$

GAZ063-065-086>088-099>101-113>116-118-119-134>141-150-220000-
...SOUTHEAST GEORGIA...

CITY           SKY/WX    TMP DP  RH WIND       PRES   REMARKS
SAVANNAH ARPT  CLOUDY    70  59  68 E7        30.04R
HUNTER AAF     MOCLDY    69  64  85 E9        30.01R
FORT STEWART   CLOUDY    71  60  66 E6        30.00S
STATESBORO     CLOUDY    72  62  71 SE5       30.02S
SYLVANIA       CLOUDY   N/A N/A N/A SE8       30.04S
CLAXTON        MOCLDY   N/A N/A N/A E3        30.02R

...CSRA...CENTRAL AND FAR SOUTHEAST GEORGIA...

CITY           SKY/WX    TMP DP  RH WIND       PRES   REMARKS
THOMSON        CLOUDY    71  60  67 E6        30.07R
AUGUSTA-BUSH   CLOUDY    71  58  63 E9        30.03R
AUGUSTA-DANIEL CLOUDY    70  55  59 E10       30.04S
SWAINSBORO     CLOUDY    72  59  64 E5        30.02S
VIDALIA        MOCLDY    72  63  73 SE6       30.01R
EASTMAN        FAIR      72  50  46 CALM      30.01S
HAZLEHURST     MOCLDY    73  61  66 CALM      29.98S
ALMA           MOCLDY    72  60  66 SE6       29.98F
WAYCROSS       MOCLDY    76  63  65 SE5       29.98F
JESUP          MOCLDY    72  59  64 SE3       30.01S
BAXLEY         FAIR      72  63  73 SE3       29.99S
BRUNSWICK      CLOUDY    70  66  88 SE3       30.03R
SAINT SIMONS   CLOUDY    68  63  84 SE5       30.02R

$$

SCZ027-028-034-036>038-045-046-048>050-GAZ119-141-220000-
...LAKE AND SUPPLEMENTAL COASTAL OBSERVATIONS...

STATION/POSITION TIME  TEMP    WIND        PRES    WAVE   SWELL
                       AIR SEA DIR/SP/G            HT/PER HT/PER/DIR
                 (UTC) (F)     (DEG/KT/KT) (MB)    (FT/S) (FT/S/D)
WINYAH BAY       2145   59      60/ 10     1019.0
LAKE MURRAY      2220   65     100/  5/  7 1017.9
ACE BASIN NERRS  NOT AVBL
FORT PULASKI     2248   67 61  120/  9/ 14 1017.4R
SAPELO ISLAND    2200   71     100/  4     1016.0

$$

ANZ835-935-AMZ111-154-330-350-352-354-370-450-454-472-220000-
...C-MAN AND BUOY OBSERVATIONS...

STATION/POSITION TIME  TEMP    WIND        PRES    WAVE   SWELL
                       AIR SEA DIR/SP/G            HT/PER HT/PER/DIR
                 (UTC) (F)     (DEG/KT/KT) (MB)    (FT/S) (FT/S/D)
BUOY 41004       2150   70 69  100/ 16/ 17 1017.6    4/ 6   2/ 50/ 8
BUOY 41008       2150   65 63  100/  6/  8 1016.1    3/ 6   2/ 90/ 6
FOLLY BEACH CMAN 2200   60      50/ 13/ 16 1019.2R
CAPERS NEARSHORE 2208   60 59   60/ 14/ 17 1018.7R
FRIPP NEARSHORE  2208   62 61   70/  8/ 12 1017.4S


STATION/POSITION TIME  TEMP    WIND        PRES    WAVE   SWELL
                       AIR SEA DIR/SP/G            HT/PER HT/PER/DIR
                 (UTC) (F)     (DEG/KT/KT) (MB)    (FT/S) (FT/S/D)
5E ST. MARYS GA  2230      65                N/A     2/ 5
FRYING PAN BUOY  2250   68 68  100/ 12/ 16 1019.6R   4/ 8   2/ 80/ 8
BUOY 41025       2250   63 75  130/ 10/ 12 1021.7R   4/ 9   5/ 40/ 9
CAPE LOOKOUT NC  2200   57      30/ 12/ 14 1020.8F
BUOY 41002       2250   65 71   70/ 12/ 16 1020.4R   5/ 7   3/ 10/ 7
BUOY 41010       NOT AVBL
ST AUGUSTINE FL  2300   69 69  130/ 12/ 13 1016.5F


$$



USA.gov is the U.S. government's official web portal to all federal, state and local government web resources and services.